Miscellaneous Local Product
Issued by NWS Hastings, NE

Home | Current Version | Previous Version | Text Only | Print | Product List | Glossary Off
Versions: 1 2 3 4 5 6 7 8 9 10 11 12 13 14 15 16 17 18 19 20 21 22 23 24 25 26 27 28 29 30 31 32 33 34 35 36 37 38 39 40 41 42 43 44 45 46 47 48 49 50

000
AXUS43 KGID 221802
MISGRI

GID CWA HOURLY WEATHER ROUNDUP
NATIONAL WEATHER SERVICE HASTINGS NE
100 PM CDT TUE APR 22 2014

NOTE: "FAIR" INDICATES FEW OR NO CLOUDS BELOW 12,000 FEET WITH NO
SIGNIFICANT WEATHER AND/OR OBSTRUCTIONS TO VISIBILITY.

...SOUTH CENTRAL NEBRASKA...

CITY           SKY/WX    TMP DP  RH WIND       PRES   REMARKS
GRAND ISLAND   CLOUDY    66  31  27 S18       30.08F
HASTINGS       CLOUDY    65  30  27 S14G23    30.08F
KEARNEY        CLOUDY    64  34  32 S20G25    30.07F
ORD            CLOUDY    63  32  31 SE18G25   30.04F
YORK           FAIR      64  30  27 SE14G20   30.11F
AURORA         PTSUNNY   64  31  28 S13       30.11F
LEXINGTON      SUNNY     68  32  26 S25G32    30.02F
HOLDREGE       CLOUDY    64  32  30 S21G26    30.04F
HEBRON         FAIR      67  28  23 S12       30.11F

...NEBRASKA PANHANDLE...

CITY           SKY/WX    TMP DP  RH WIND       PRES   REMARKS
CHADRON        CLOUDY    69  45  41 SW14      29.79F
ALLIANCE       PTSUNNY   72  41  32 S20G32    29.86F
SCOTTSBLUFF    CLOUDY    73  43  33 S9G21     29.85F
SIDNEY         PTSUNNY   72  42  34 S23       29.90F

...WESTERN AND NORTH CENTRAL NEBRASKA...

CITY           SKY/WX    TMP DP  RH WIND       PRES   REMARKS
VALENTINE      MOSUNNY   71  29  21 S28G37    29.90F
AINSWORTH      MOSUNNY   69  31  24 S24G31    29.94F
ONEILL         PTSUNNY   64  23  21 SE21      30.04F
BROKEN BOW     CLOUDY    65  31  28 S23G30    30.01F
IMPERIAL       MOSUNNY   72  33  24 S28G38    29.95F
NORTH PLATTE   MOSUNNY   67  31  26 S17G33    29.97F
MCCOOK         SUNNY     71  32  23 S24G33    29.99F

...EASTERN NEBRASKA...

CITY           SKY/WX    TMP DP  RH WIND       PRES   REMARKS
NORFOLK        FAIR      64  28  25 SE15G22   30.08F
SO SIOUX CITY  FAIR      63  31  30 E8        30.12F
TEKAMAH        FAIR      65  30  27 SE8       30.12F
COLUMBUS       FAIR      64  34  32 SE12G17   30.11F
ALBION         PTSUNNY   63  27  25 S14G21    30.08F
OMAHA EPPLEY   FAIR      62  31  31 E7        30.13F
OFFUTT AFB     FAIR      62  33  33 E5        30.13F
MILLARD        FAIR      60  31  34 CALM      30.14F
LINCOLN        FAIR      65  32  29 SE8       30.14F
NEBRASKA CITY  FAIR      61  31  32 N5        30.14F
BEATRICE       FAIR      65  29  26 E10       30.12F
FALLS CITY     FAIR      64  30  27 VRB3      30.12F

...NORTHERN KANSAS...

CITY           SKY/WX    TMP DP  RH WIND       PRES   REMARKS
GOODLAND       SUNNY     71  34  25 S33G43    29.98F
HILL CITY      CLOUDY    68  31  25 S21G28    30.06F
PHILLIPSBURG   PTSUNNY   70  30  23 SE15G25   30.06F
SMITH CENTER   PTSUNNY   64  34  32 SE16G23   30.08F
BELOIT         MOSUNNY   70  30  23 SE13      30.08F
HAYS           CLOUDY    72  32  23 S20G28    30.08F
RUSSELL        FAIR      73  30  20 S18G26    30.07F
CONCORDIA      FAIR      68  29  23 SE10G21   30.10F
SALINA         FAIR      72  32  23 S8        30.11F
TOPEKA         FAIR      66  34  30 CALM      30.12F



USA.gov is the U.S. government's official web portal to all federal, state and local government web resources and services.